Location: Spaichingen
(48.0400°N, 8.4300°E)
Time: 21:21:53
(UTC+01:00)

ISS - Visible Passes

Search period start: 22 March 2019 00:00
Search period end: 01 April 2019 01:00
Orbit: 406 x 411 km, 51.6° (Epoch: 23 March)

Date Brightness Start Highest point End Pass type
(mag) Time Alt. Az. Time Alt. Az. Time Alt. Az.
22 Mar -2.3 19:37:06 10° S 19:39:35 20° SE 19:40:46 17° ESE visible
22 Mar -1.4 21:12:31 10° WSW 21:13:33 19° WSW 21:13:33 19° WSW visible
23 Mar -3.9 20:21:31 10° SW 20:24:47 64° SSE 20:25:12 56° ESE visible
24 Mar -3.2 19:30:40 10° SW 19:33:47 40° SSE 19:36:39 12° ENE visible
24 Mar -2.4 21:07:03 10° W 21:09:24 39° WNW 21:09:24 39° WNW visible
25 Mar -3.7 20:15:53 10° WSW 20:19:11 73° NNW 20:20:42 29° ENE visible
25 Mar -0.6 21:52:51 10° WNW 21:53:27 14° WNW 21:53:27 14° WNW visible
26 Mar -3.8 19:24:47 10° WSW 19:28:05 79° SSE 19:31:22 10° ENE visible
26 Mar -2.8 21:01:38 10° W 21:04:36 43° NNW 21:04:36 43° NNW visible
27 Mar -3.1 20:10:23 10° W 20:13:37 50° NNW 20:15:40 20° ENE visible
27 Mar -1.0 21:47:20 10° WNW 21:48:25 19° WNW 21:48:25 19° WNW visible
28 Mar -3.4 19:19:09 10° W 19:22:26 63° NNW 19:25:43 10° ENE visible
28 Mar -2.9 20:56:08 10° WNW 20:59:19 42° N 20:59:24 42° N visible
29 Mar -2.8 20:04:54 10° WNW 20:08:04 42° N 20:10:20 17° ENE visible
29 Mar -1.4 21:41:39 10° WNW 21:43:04 23° WNW 21:43:04 23° WNW visible
30 Mar -3.3 20:50:29 10° WNW 20:53:44 50° NNE 20:53:57 49° NNE visible
31 Mar -3.0 20:59:18 10° WNW 21:02:29 44° N 21:04:50 16° ENE visible
31 Mar -1.7 22:35:55 10° WNW 22:37:33 27° WNW 22:37:33 27° WNW visible
